GFSNIL_prec_cloud_036.txt.gz
Cloud_Cover
98 100 100 100 48 10 9 63 53 7 5 5 5 5 5 6 54 76 94 97 100 93
93 36 5 5 46 22 31 10 5 5 5 5 57 82 17 93 100 92 36 90 51 73
3 5 5 5 13 5 5 5 5 5 2 64 66 82 89 100 100 94 100 100 100 98
6 5 5 5 5 11 5 5 2 0 1 9 20 15 65 90 100 100 98 69 83 27
48 9 5 5 3 2 0 0 0 0 0 2 5 88 86 100 100 100 100 100 100 5
5 5 2 0 0 2 1 2 0 5 10 59 100 99 97 73 100 100 96 38 5 5
5 5 3 5 5 5 5 3 2 30 78 96 80 20 44 80 91 92 92 5 5 5
5 5 5 6 44 5 0 0 4 100 100 81 42 92 77 35 85 79 5 5 9 5
5 6 48 32 0 2 4 4 98 75 100 100 100 88 88 78 5 5 8 94 93 5
100 94 6 4 4 5 6 34 84 99 95 98 90 96 50 5 5 5 5 5 5 6
34 5 5 5 4 5 24 100 100 94 75 38 5 5 5 5 5 5 5 5 7 24
6 5 5 5 10 78 100 100 54 69 55 5 5 5 5 5 5 5 5 5 5 94
5 5 5 5 99 100 100 100 96 99 13 5 5 5 5 27 5 25 16 8 5 6
19 61 12 39 99 95 99 97 96 80 6 5 5 5 5 72 74 25 64 75 70 78

GFSNIL_prec_cloud_039.txt.gz
Cloud_Cover
79 92 5 14 3 5 5 5 5 6 5 5 5 5 5 5 5 11 42 86 100 76
100 10 5 5 5 7 40 89 79 8 5 1 0 0 1 5 6 25 89 93 99 90
6 5 5 16 56 61 31 5 5 0 0 2 0 5 81 11 74 56 100 94 100 100
5 5 5 8 5 5 3 4 1 1 0 0 6 98 78 35 83 100 63 17 34 46
5 5 5 5 3 5 5 1 5 0 0 5 98 100 42 100 99 100 100 76 8 11
5 5 5 5 5 5 5 4 5 5 10 27 97 100 84 63 65 6 5 5 7 5
8 38 8 6 27 5 5 5 5 26 96 75 63 41 15 25 5 5 5 5 5 14
5 23 56 97 38 15 51 5 3 18 100 55 70 68 76 5 19 35 5 5 5 23
78 100 100 100 35 68 7 5 60 100 56 81 86 70 5 5 5 5 5 3 0 5
100 100 100 57 14 5 21 32 90 95 99 97 94 11 5 5 5 5 2 0 5 7
100 100 47 87 76 12 75 100 100 100 90 79 29 5 5 5 5 3 3 5 38 99
100 88 100 100 8 89 100 60 100 95 84 86 5 5 5 5 5 5 14 90 100 100
16 100 20 5 8 94 97 91 100 98 78 25 5 5 5 5 86 100 100 100 100 100
100 86 11 67 8 68 99 96 100 97 75 22 5 5 5 5 92 99 100 100 100 100

GFSNIL_prec_cloud_042.txt.gz
Cloud_Cover
91 61 92 43 5 5 5 5 5 5 5 5 5 5 6 16 67 99 84 72 98 85
94 87 96 72 8 76 48 5 5 5 5 5 5 5 5 8 81 96 26 93 95 100
100 94 68 5 17 13 5 5 5 5 11 23 5 5 12 36 64 92 94 89 100 100
99 98 67 54 9 5 5 5 9 5 5 5 5 66 25 77 92 45 94 100 100 100
86 6 5 5 15 5 8 35 5 15 9 5 69 54 98 98 32 91 100 100 98 100
5 5 5 25 35 19 53 92 5 5 5 60 98 95 68 60 100 98 100 100 100 98
48 72 78 91 49 100 96 28 5 5 15 97 100 99 100 92 97 100 100 98 84 42
79 62 74 96 100 100 22 32 9 56 74 27 89 81 91 100 100 100 62 6 5 5
76 99 100 100 100 33 18 37 88 70 100 100 100 5 5 5 70 6 5 5 1 5
100 100 100 77 21 35 97 69 93 100 78 100 100 5 5 5 5 5 5 5 5 5
100 100 99 100 100 100 100 95 100 75 100 100 98 5 5 5 5 7 5 13 5 63
100 98 100 100 94 100 100 100 99 98 100 100 100 5 5 5 30 90 87 84 93 93
100 100 100 100 100 100 100 100 100 100 100 97 76 54 5 16 72 90 97 94 97 100
100 100 100 100 100 100 100 100 100 100 100 100 96 90 17 42 18 95 99 94 96 100

GFSNIL_prec_cloud_045.txt.gz
Cloud_Cover
5 38 7 64 97 92 88 91 12 5 5 5 5 5 5 5 90 99 82 73 100 86
15 60 100 94 58 97 63 5 5 5 5 5 5 5 5 7 100 55 77 75 16 36
92 97 100 98 80 10 27 28 5 5 5 5 5 5 14 53 95 6 58 78 78 93
100 100 74 14 5 6 5 60 87 73 57 5 5 7 15 5 47 64 94 44 79 91
94 51 5 5 5 5 56 84 69 64 5 5 5 7 6 73 88 89 90 75 95 100
89 10 5 5 13 25 58 69 82 19 90 44 13 29 15 97 86 100 100 100 100 99
34 35 65 68 58 69 78 90 100 100 100 100 83 88 81 100 100 95 100 100 100 38
97 80 71 92 100 100 100 100 100 100 89 99 100 100 37 44 91 100 94 62 13 46
100 94 100 100 100 100 100 100 96 100 100 100 100 62 5 5 19 5 22 19 19 5
100 100 100 100 96 100 100 100 100 100 100 100 100 22 5 5 1 5 35 63 59 5
100 100 100 100 100 100 100 100 100 100 100 100 98 89 5 5 3 45 91 72 75 80
100 100 100 100 100 100 100 100 100 100 98 100 100 100 6 5 5 82 95 78 90 58
100 100 100 100 100 100 100 100 100 100 99 89 100 89 29 5 6 97 100 78 88 85
100 100 100 100 100 100 100 100 100 100 99 98 100 100 86 8 5 95 100 83 95 100

GFSNIL_prec_cloud_048.txt.gz
Cloud_Cover
5 5 8 13 84 67 99 100 46 2 2 4 5 5 5 5 5 3 80 6 5 66
20 22 73 87 100 100 75 8 5 5 5 5 5 5 5 5 5 27 24 27 5 81
25 89 72 97 100 100 94 5 5 6 21 17 5 5 5 5 44 60 5 5 5 74
75 90 100 100 100 22 50 5 5 71 44 5 44 46 5 31 12 5 5 5 19 23
96 100 100 98 99 100 57 22 90 61 5 65 20 34 72 37 5 5 9 98 100 50
100 100 100 100 100 81 92 100 53 61 100 88 86 94 100 83 37 24 96 96 22 90
100 99 100 98 88 99 81 80 93 100 100 91 98 92 83 44 10 84 88 92 99 84
79 100 100 100 95 100 100 100 100 100 100 57 90 88 93 100 95 96 68 90 95 12
100 100 86 93 100 100 100 100 100 100 100 100 100 100 100 100 88 41 89 2 5 5
100 100 100 100 100 100 100 100 100 100 100 100 100 100 100 63 36 69 5 5 21 5
100 100 100 100 100 100 100 100 100 100 100 100 100 100 100 43 5 5 4 92 42 5
100 100 100 100 100 100 100 100 100 100 100 100 100 100 100 100 10 5 5 5 5 61
100 100 100 100 100 100 100 100 100 100 100 100 100 81 100 94 5 8 5 62 46 82
100 100 100 100 100 100 100 100 100 100 100 87 97 25 40 65 66 39 55 100 97 83

GFSNIL_prec_cloud_051.txt.gz
Cloud_Cover
5 20 56 91 100 72 71 100 100 100 26 5 5 5 5 6 43 55 5 5 5 9
46 18 92 86 89 100 64 94 100 100 100 100 77 38 61 7 25 5 9 5 7 44
100 90 98 96 100 100 100 100 100 100 99 91 93 87 62 18 67 99 65 16 96 72
100 100 100 76 100 100 100 100 100 93 98 93 85 99 89 96 96 68 19 58 98 100
100 100 100 100 100 100 100 100 90 99 91 61 100 100 100 81 53 23 87 100 100 100
100 100 100 100 99 98 76 82 100 98 87 100 97 100 100 100 97 100 100 100 100 100
100 100 100 78 92 100 97 97 100 90 98 100 100 100 100 100 100 100 100 100 100 100
100 98 100 98 100 100 98 100 100 100 100 100 100 100 100 100 100 100 100 99 100 70
100 100 100 100 99 100 100 100 100 100 100 100 100 100 100 100 100 100 82 95 38 0
100 100 100 100 100 100 100 100 100 100 100 100 100 100 100 100 100 100 88 40 5 5
99 100 100 100 100 100 100 100 100 100 100 100 100 100 100 100 100 34 92 32 5 5
100 100 100 100 100 100 100 100 100 100 100 100 100 100 100 59 66 95 99 68 5 5
100 100 100 100 100 100 100 100 100 100 100 100 100 72 5 36 83 100 98 5 5 5
100 100 100 100 100 100 100 100 100 100 100 97 4 29 32 66 18 5 5 5 5 5

GFSNIL_prec_cloud_054.txt.gz
Cloud_Cover
5 14 39 81 100 100 100 100 100 100 100 100 100 59 5 5 5 12 5 5 5 5
88 84 74 100 100 100 100 100 100 100 100 100 100 93 81 34 26 71 23 47 21 87
100 99 100 100 92 100 100 100 100 100 100 100 70 100 77 94 75 55 68 43 19 34
100 98 95 100 100 100 100 100 100 100 100 52 45 94 92 89 56 37 48 55 35 62
64 100 93 96 100 100 100 100 100 92 42 18 89 99 92 90 47 65 66 82 97 100
44 38 100 77 100 100 99 72 76 34 97 82 82 94 86 77 93 100 100 100 100 100
100 100 94 46 100 97 31 71 52 89 80 61 92 100 100 100 100 100 100 100 100 100
93 47 25 96 100 83 94 76 100 82 100 98 98 100 100 100 100 100 100 100 100 100
93 95 98 100 96 100 100 92 100 100 94 83 100 100 100 100 100 100 100 99 26 5
100 92 99 75 100 100 100 98 100 99 100 100 100 100 100 100 100 76 8 5 26 7
93 96 97 100 99 100 99 99 100 96 100 100 100 100 90 45 5 5 5 85 78 74
100 100 100 100 100 100 100 100 93 100 100 87 8 5 5 5 5 5 15 58 100 100
100 100 100 100 100 100 100 97 100 51 0 0 2 5 5 5 5 44 32 14 81 44
100 100 100 100 100 97 100 96 3 0 3 5 5 5 5 5 70 95 49 40 5 20

GFSNIL_prec_cloud_057.txt.gz
Cloud_Cover
4 84 94 6 94 94 35 86 100 100 100 95 88 100 98 100 100 82 50 45 40 24
0 5 5 25 99 94 98 88 100 100 100 100 100 99 99 86 96 82 84 61 42 30
5 5 7 40 100 88 90 100 100 80 100 100 100 100 83 72 38 26 81 87 89 98
82 64 5 28 54 41 100 100 100 100 100 99 71 76 97 93 98 80 87 60 84 100
93 94 91 100 94 100 63 100 100 44 100 84 97 96 58 92 59 13 75 100 100 99
100 85 100 93 100 27 74 95 99 100 89 99 78 91 58 11 78 93 91 97 100 98
100 98 97 100 60 99 100 100 81 99 94 100 100 84 93 100 82 75 89 44 7 5
99 100 100 100 100 100 76 100 100 94 100 100 88 31 62 42 72 10 1 2 5 5
100 100 100 100 100 100 100 100 100 100 100 100 100 100 100 100 10 5 5 5 5 5
100 100 100 100 100 100 100 100 100 98 83 96 100 100 98 7 5 5 5 5 5 30
100 100 100 99 100 100 100 100 94 52 71 86 95 6 5 5 5 5 5 5 5 79
100 100 100 100 100 100 98 92 75 58 67 26 5 0 0 5 5 5 5 5 5 65
100 98 92 100 100 72 91 15 6 56 15 5 0 0 5 5 19 16 5 5 5 14
96 88 90 79 89 51 9 26 32 6 5 0 0 0 5 6 37 15 72 97 34 7

GFSNIL_prec_cloud_063.txt.gz
Cloud_Cover
100 100 100 100 100 100 100 100 100 26 15 57 65 94 100 100 100 100 20 5 5 5
100 100 100 100 100 100 99 88 19 17 99 99 100 99 99 100 100 49 70 90 91 27
100 100 100 100 100 72 87 92 89 94 100 100 100 100 100 100 99 83 75 35 25 45
100 100 100 100 100 90 98 100 100 100 100 100 100 100 100 100 97 67 23 60 9 31
100 100 100 100 100 100 100 100 100 100 100 100 100 100 96 83 99 100 99 49 56 48
100 100 100 100 100 100 100 100 100 100 100 100 100 100 99 100 97 69 60 41 53 5
100 100 100 100 100 100 100 100 100 100 100 100 100 100 100 76 85 92 92 40 5 5
100 100 100 100 100 100 100 100 100 100 100 100 100 97 99 88 95 46 38 5 5 5
100 100 100 100 100 100 100 100 100 100 100 100 89 99 76 8 46 6 6 36 42 5
97 100 100 100 100 100 100 100 100 99 66 80 100 92 21 44 19 17 53 61 5 24
100 100 100 100 100 100 100 98 33 92 99 69 74 75 66 54 14 14 31 5 42 60
100 98 88 100 100 69 87 100 100 76 33 45 88 89 94 87 23 21 5 56 85 84
77 100 100 98 98 92 47 5 5 16 29 68 75 95 77 20 5 10 48 72 56 12
94 80 100 31 6 5 11 31 7 6 53 55 38 42 53 57 7 16 39 23 8 5

GFSNIL_prec_cloud_066.txt.gz
Cloud_Cover
100 100 100 100 100 100 100 100 100 100 100 100 100 15 93 100 89 96 100 100 67 7
100 100 100 100 100 100 100 100 100 100 100 100 97 98 100 100 96 100 100 100 98 29
92 84 100 100 100 96 100 100 100 100 96 100 100 100 100 100 100 100 100 97 92 100
100 100 100 100 100 100 100 100 100 99 100 100 100 100 100 100 100 100 100 84 25 76
100 100 100 100 100 100 100 100 100 100 100 100 100 100 100 100 100 100 92 100 99 91
100 100 100 100 100 100 100 100 100 100 100 100 100 100 100 100 100 88 100 100 97 98
100 100 100 100 100 100 100 100 100 100 100 100 100 100 100 95 100 100 100 100 96 100
100 100 100 100 100 100 100 100 100 100 100 100 100 100 96 100 100 100 86 100 100 85
100 100 100 100 100 100 100 100 100 100 100 100 100 100 100 95 100 84 7 89 39 71
98 96 100 100 100 100 100 100 99 100 100 100 96 86 77 82 67 16 85 16 15 7
93 98 100 100 100 98 100 94 100 97 68 82 53 69 27 19 5 5 5 23 43 7
100 100 100 100 100 100 100 81 60 57 65 97 100 22 62 6 5 5 69 77 6 5
100 100 100 100 96 95 82 56 74 80 44 34 57 43 33 5 5 39 8 6 5 5
100 98 100 100 100 96 97 99 76 16 19 22 40 34 5 19 7 5 6 5 5 5

GFSNIL_prec_cloud_069.txt.gz
Cloud_Cover
79 51 68 100 100 88 100 100 100 100 100 100 100 100 100 100 100 100 100 98 100 100
47 71 89 97 100 100 100 100 100 100 100 100 100 100 100 100 100 100 100 100 100 100
96 100 100 80 98 100 100 100 100 100 100 100 100 100 100 100 100 100 100 100 100 99
100 100 100 80 100 100 100 100 100 100 100 100 100 100 100 100 100 100 100 100 96 100
100 100 100 100 100 100 100 100 100 100 100 100 100 100 100 100 100 100 100 100 100 100
100 100 100 100 100 100 100 100 100 100 100 100 100 100 100 100 100 96 82 100 100 99
100 100 100 100 100 100 100 100 100 100 100 100 100 100 100 100 100 100 100 100 100 100
100 100 100 100 100 100 100 100 100 100 100 100 100 100 100 100 100 100 99 100 100 83
100 100 100 100 100 100 100 100 100 100 100 100 100 100 100 100 73 78 100 89 26 26
100 100 100 100 100 100 100 100 100 100 96 64 56 64 43 96 100 100 97 64 100 88
100 98 100 100 100 100 100 100 99 89 68 70 64 99 100 100 71 72 80 48 72 32
87 81 100 99 100 100 78 91 78 81 94 100 100 100 69 65 79 63 99 31 6 6
98 100 79 42 78 56 67 76 92 100 100 100 94 99 100 97 38 12 5 5 27 9
100 83 86 95 100 100 100 100 100 100 100 100 88 29 26 56 8 5 18 5 5 5

GFSNIL_prec_cloud_072.txt.gz
Cloud_Cover
32 5 20 91 39 81 100 99 100 87 100 100 100 100 100 100 100 100 100 100 98 100
5 5 5 5 5 53 100 85 100 100 100 100 100 100 100 100 100 100 100 100 100 100
30 34 14 6 44 100 91 100 100 100 100 100 100 100 100 100 100 100 100 100 100 100
98 100 100 96 25 50 41 90 100 100 100 100 100 100 100 100 100 100 100 100 100 100
17 79 100 100 100 91 94 100 100 100 100 100 100 100 100 100 100 100 100 100 100 100
74 97 66 100 100 100 100 100 100 100 100 100 100 100 100 100 100 100 100 100 100 100
100 100 100 100 100 100 100 100 100 100 100 100 100 100 100 100 100 100 100 100 100 100
100 100 100 100 100 100 100 100 100 100 100 99 100 100 100 100 100 99 100 100 100 97
100 100 100 100 100 100 100 100 100 100 100 100 100 96 65 73 59 65 62 100 100 100
100 100 100 100 100 100 86 94 99 61 87 62 27 16 40 93 100 100 100 100 100 99
100 100 100 100 100 100 99 87 91 91 79 29 91 99 100 100 100 100 100 83 58 63
100 100 100 100 100 89 98 99 100 100 100 93 88 100 100 100 99 85 91 13 10 81
65 70 51 77 100 100 100 100 100 88 99 100 92 95 92 99 97 44 64 26 44 91
40 50 69 99 90 53 66 58 94 98 96 12 5 12 74 97 70 40 10 35 38 95

GFSNIL_prec_cloud_075.txt.gz
Cloud_Cover
21 8 8 75 5 5 5 71 100 100 100 100 100 100 100 100 100 100 100 100 100 100
93 14 5 5 15 52 62 94 100 100 100 100 100 100 100 100 100 100 100 100 100 100
65 14 5 28 43 51 99 100 100 100 100 100 100 100 100 100 100 100 100 100 100 100
33 34 95 100 100 100 100 100 100 100 100 98 100 100 100 100 100 100 100 100 100 100
5 75 100 100 100 100 100 100 100 100 87 100 100 100 100 96 100 100 100 100 100 100
100 97 94 100 100 100 100 100 100 100 100 100 100 100 100 100 100 100 100 100 100 100
100 100 100 100 100 100 85 100 100 100 98 98 100 100 100 78 88 100 100 100 99 91
100 100 100 100 100 100 100 100 100 100 100 100 100 100 100 100 100 100 100 85 60 100
100 100 100 100 100 100 100 100 100 100 100 100 100 100 74 100 95 7 44 50 35 79
100 100 100 100 100 100 100 100 100 100 100 100 92 55 55 99 99 40 38 17 38 16
100 100 100 100 100 100 100 100 100 38 34 95 98 96 48 20 10 38 21 55 6 5
100 100 100 100 100 100 85 52 36 25 63 82 99 15 9 73 28 16 38 11 5 8
100 100 100 100 98 100 99 48 70 5 13 9 100 89 22 49 5 5 5 5 5 92
100 75 46 96 100 73 41 35 31 21 100 100 100 100 92 53 16 16 24 69 100 92

GFSNIL_prec_cloud_078.txt.gz
Cloud_Cover
100 100 100 64 37 15 16 30 18 29 17 100 100 100 100 100 100 100 100 100 100 100
2 19 5 5 42 5 13 73 96 41 98 100 100 100 100 100 100 100 100 100 55 100
94 43 23 84 99 75 18 98 100 100 100 100 100 100 78 80 100 100 81 100 91 82
100 40 57 100 100 100 100 100 100 100 100 100 100 100 78 95 90 64 82 86 100 100
90 88 100 100 100 100 100 100 100 100 100 100 100 100 100 100 100 100 100 100 100 100
92 94 75 100 100 100 100 100 100 100 100 100 100 100 100 100 100 100 100 100 100 100
100 92 93 100 100 100 100 100 100 100 100 100 100 100 100 100 100 100 100 100 99 100
100 100 100 100 100 100 100 100 100 100 100 100 100 100 100 100 96 100 100 100 100 100
100 100 100 100 100 100 100 100 100 100 100 100 100 100 100 100 100 100 100 100 100 64
100 100 100 100 100 100 100 100 100 100 100 100 100 100 100 98 87 99 79 13 29 66
100 100 100 100 100 100 100 100 100 100 100 100 100 85 100 88 100 25 5 76 100 99
100 100 100 100 100 100 100 100 100 100 100 73 48 42 55 48 5 75 100 100 84 39
100 100 100 100 100 100 100 100 100 30 55 44 57 66 6 28 60 68 42 48 69 79
100 100 100 100 100 100 100 80 62 60 73 53 53 55 48 66 74 73 98 99 84 41

GFSNIL_prec_cloud_081.txt.gz
Cloud_Cover
85 99 100 100 100 100 100 100 100 100 100 100 94 98 100 100 100 100 100 46 100 100
5 25 85 94 94 99 95 100 100 100 100 100 100 97 100 100 100 99 78 100 88 80
29 50 57 41 27 12 52 98 100 98 100 100 100 100 100 100 100 99 100 90 99 100
45 39 28 25 96 78 100 100 100 100 100 100 100 100 100 100 100 100 97 100 100 100
98 82 69 83 100 100 100 100 100 100 100 100 100 100 100 100 100 100 100 100 100 100
100 100 100 100 100 100 100 100 100 100 100 100 100 100 100 100 100 100 100 100 100 100
23 47 54 86 100 100 100 100 100 100 100 97 100 100 100 100 100 100 100 100 100 100
70 86 100 99 100 100 100 100 100 100 100 100 100 100 100 100 100 100 100 100 100 100
100 100 100 100 100 100 100 100 100 100 100 100 100 100 100 100 100 100 100 100 100 100
100 100 100 100 100 100 100 100 100 100 100 100 100 100 100 100 100 100 100 100 100 100
100 100 100 100 100 100 100 100 100 100 100 100 100 100 100 100 100 100 100 100 100 100
100 100 100 100 100 100 100 100 100 100 100 100 100 100 100 100 100 100 100 100 100 100
100 100 100 100 100 100 100 100 100 100 100 100 100 100 100 100 100 100 98 100 100 100
100 100 100 100 100 100 100 100 100 100 100 100 100 100 100 100 100 100 100 100 100 100

GFSNIL_prec_cloud_084.txt.gz
Cloud_Cover
100 100 100 100 100 100 100 100 100 100 100 100 100 100 100 100 94 90 99 100 100 63
100 100 99 100 100 100 100 100 93 99 98 100 100 95 100 100 100 100 100 100 100 100
26 16 5 6 56 94 99 99 96 100 100 100 100 100 100 100 100 100 100 100 100 100
5 25 7 24 58 49 28 83 97 100 100 100 100 100 100 100 100 100 100 100 100 100
95 100 16 99 100 100 86 86 100 100 100 100 100 100 100 100 100 100 100 100 100 100
100 100 100 100 100 96 75 51 94 100 100 100 100 100 100 100 100 100 100 100 100 100
44 16 9 26 15 29 77 85 95 98 100 100 100 100 100 100 100 100 100 100 100 100
0 2 3 33 12 37 50 54 93 100 100 100 100 100 100 100 100 100 100 100 100 100
100 100 100 100 100 100 100 100 100 100 100 100 100 100 100 100 100 100 100 100 100 100
100 100 100 100 100 100 100 100 100 100 100 100 100 100 100 100 100 100 100 100 100 100
100 100 100 100 100 100 100 100 100 100 100 100 100 100 100 100 100 100 100 100 100 100
100 100 100 100 100 100 100 100 100 100 100 100 100 100 100 100 100 100 100 100 100 100
100 100 100 100 100 100 100 100 100 100 100 100 100 100 100 100 100 100 100 100 100 100
100 100 100 100 100 100 100 100 100 100 100 100 100 100 100 100 100 100 100 100 100 100

GFSNIL_prec_cloud_087.txt.gz
Cloud_Cover
71 100 100 100 100 100 100 100 100 100 100 100 100 100 100 100 100 100 96 100 71 100
92 100 100 100 100 100 100 100 100 100 100 100 100 100 94 97 99 100 91 88 100 100
100 100 77 48 73 22 12 82 71 89 100 99 92 85 80 86 100 100 100 100 100 100
21 5 10 4 5 5 9 13 23 62 93 94 100 98 100 100 100 100 100 100 100 100
5 14 100 100 96 32 100 100 20 7 5 82 100 100 100 100 100 100 100 100 100 100
70 98 90 72 100 100 100 100 68 25 58 98 95 99 100 100 100 100 100 100 100 100
67 57 72 100 100 100 72 83 78 79 100 58 100 100 100 100 100 100 100 100 100 100
0 0 0 1 4 1 70 19 17 72 85 96 100 100 100 100 100 100 100 100 100 100
4 0 0 0 0 19 60 91 80 100 100 100 100 100 100 100 100 100 100 100 100 100
34 36 79 97 100 100 100 100 100 100 100 100 100 100 100 100 100 100 100 100 100 100
100 100 100 100 100 100 100 100 100 100 100 100 100 100 100 100 100 100 100 100 100 100
100 100 100 100 100 100 100 100 100 100 100 100 100 100 100 100 100 100 100 100 100 100
100 100 100 100 100 100 100 100 100 100 100 100 100 100 100 100 100 100 100 100 100 100
100 100 100 100 100 100 100 100 100 100 100 100 100 100 100 100 100 100 100 100 100 100

GFSNIL_prec_cloud_093.txt.gz
Cloud_Cover
100 100 100 100 100 100 100 100 100 100 100 100 100 100 100 100 100 100 100 100 100 100
96 100 100 100 100 100 100 100 100 100 100 100 100 100 100 100 100 100 100 100 100 100
100 100 100 100 100 100 100 100 100 100 100 100 100 100 100 100 100 100 100 100 100 100
34 100 99 100 100 100 100 100 100 100 100 100 100 100 100 100 100 95 82 78 100 98
36 96 100 100 100 70 91 100 100 100 100 53 34 74 12 5 5 13 5 63 78 92
0 0 0 38 60 91 57 80 79 47 9 19 42 28 14 16 5 5 67 99 88 100
2 0 0 0 5 5 21 88 97 92 67 20 43 26 8 67 5 29 11 83 100 100
99 47 7 15 13 11 17 42 29 20 49 36 24 25 28 70 83 97 100 100 100 100
100 100 100 100 100 82 31 50 42 36 27 24 96 100 100 100 100 100 100 100 100 100
100 100 100 100 100 100 100 95 73 61 100 100 100 100 96 100 100 100 100 100 100 100
69 97 84 100 100 100 100 100 100 100 100 100 100 100 100 100 100 100 100 100 100 100
63 28 94 100 100 100 100 100 100 100 100 100 100 100 100 100 100 100 100 100 100 100
96 99 100 100 100 100 100 100 100 100 100 100 100 100 100 100 100 100 100 100 100 100
100 100 100 100 100 100 100 100 100 100 100 100 100 100 100 100 100 100 100 100 100 100

GFSNIL_prec_cloud_096.txt.gz
Cloud_Cover
100 100 100 100 100 100 100 100 100 100 100 100 100 100 100 100 100 100 100 100 100 100
100 100 100 100 100 100 100 100 100 100 100 100 100 100 100 100 100 100 100 100 100 100
16 78 96 100 100 100 100 100 100 100 100 100 100 100 100 100 100 100 100 100 100 100
28 0 47 80 100 100 100 100 100 100 100 100 100 100 100 100 100 100 100 100 100 100
80 30 47 97 32 100 99 100 100 100 100 100 100 100 100 100 100 100 100 100 100 100
100 94 95 83 16 100 100 21 74 100 93 100 100 100 100 100 100 100 97 100 97 98
0 2 4 5 2 100 91 84 75 100 100 63 82 92 87 68 100 100 100 100 100 73
22 2 38 99 81 52 55 23 5 87 100 100 40 45 21 34 66 95 100 100 100 100
43 6 5 5 84 100 100 100 100 100 100 97 58 100 100 70 85 100 100 100 100 100
26 5 5 5 45 88 91 99 98 100 100 100 100 100 98 69 100 100 100 100 100 100
100 59 14 5 61 82 78 85 100 100 100 100 100 100 100 100 100 100 100 100 100 100
100 100 100 100 100 100 100 100 100 100 100 100 100 100 100 100 100 100 100 100 100 100
100 100 98 100 100 100 100 100 100 100 100 100 100 100 100 100 100 100 100 100 100 100
83 100 100 100 100 100 100 100 100 100 100 100 100 100 100 100 100 100 100 100 100 100

GFSNIL_prec_cloud_099.txt.gz
Cloud_Cover
98 100 100 100 100 100 100 100 100 100 100 100 100 100 100 100 100 100 100 100 100 100
100 93 100 100 100 100 100 100 100 100 100 100 100 100 100 100 100 100 100 100 100 100
100 100 100 100 100 100 100 100 100 100 100 100 100 100 100 100 100 100 100 100 100 100
100 85 75 94 100 100 100 100 100 100 100 100 100 100 100 100 100 100 100 100 100 100
100 54 48 4 12 100 100 100 100 100 100 100 100 100 100 100 100 100 100 100 100 100
100 75 19 0 0 3 30 62 99 100 100 100 100 100 100 100 100 100 100 100 100 100
95 89 3 1 3 0 1 2 5 6 10 72 98 100 100 100 100 100 100 100 100 100
7 24 32 2 0 43 79 31 44 4 23 71 72 18 42 14 58 58 78 100 100 100
17 5 5 5 3 4 5 100 100 100 100 100 100 100 100 96 97 100 100 100 100 100
100 97 89 5 5 10 2 89 100 100 100 100 100 100 100 100 100 100 100 100 100 100
100 100 100 100 96 79 44 100 100 100 100 100 100 100 100 100 100 100 100 100 100 100
93 20 52 100 87 100 100 100 100 100 100 100 100 100 100 100 100 100 100 100 100 100
98 94 54 100 98 100 100 100 100 100 100 100 100 100 100 100 100 100 100 100 100 100
100 97 100 100 100 100 100 100 100 100 100 100 100 100 100 100 100 100 100 100 100 100

GFSNIL_prec_cloud_102.txt.gz
Cloud_Cover
97 100 100 100 100 100 100 100 100 100 100 100 100 100 100 100 100 100 100 100 100 100
79 95 98 100 100 100 100 100 100 100 100 100 100 100 100 100 100 100 100 100 100 100
100 86 32 99 100 100 100 100 100 100 100 100 100 100 100 100 100 100 100 100 100 100
100 100 38 57 100 100 100 100 100 100 100 100 100 100 100 100 100 100 100 100 100 100
100 89 58 32 87 79 52 29 100 100 100 100 100 100 100 100 100 100 100 100 100 100
100 100 100 24 0 0 15 76 96 100 100 100 100 100 100 100 100 100 100 100 100 100
100 100 100 96 1 0 0 4 3 2 9 94 100 100 100 100 100 100 100 100 100 100
77 100 100 100 18 4 0 0 0 3 4 5 5 6 12 52 94 51 80 100 100 100
65 24 100 100 99 22 7 0 0 24 53 4 41 100 100 83 99 100 100 100 100 100
5 17 18 95 100 74 51 24 40 33 100 47 60 100 91 100 100 100 100 100 100 100
19 95 100 97 62 68 52 33 62 100 100 100 100 100 100 100 100 100 100 100 100 100
99 28 100 100 100 100 100 100 100 100 100 100 100 100 100 100 100 100 100 100 100 100
100 100 100 100 100 100 100 100 100 100 100 100 100 100 100 100 100 100 100 100 100 100
100 100 100 100 100 100 100 100 100 100 100 100 100 100 100 100 100 100 100 100 100 100

GFSNIL_prec_cloud_105.txt.gz
Cloud_Cover
100 100 100 100 100 100 100 100 100 100 100 100 100 100 100 100 100 100 100 100 100 100
100 100 100 100 100 100 100 100 100 100 100 100 100 100 100 100 100 100 100 100 100 100
76 100 100 100 100 100 100 100 100 100 100 100 100 100 100 100 100 100 100 100 100 100
29 88 92 97 100 100 100 100 100 100 100 100 100 100 100 100 100 100 100 100 100 100
0 20 74 93 100 100 100 100 100 100 100 100 100 100 100 100 100 100 100 100 100 100
6 66 28 16 65 100 100 100 100 100 100 100 100 100 100 100 100 100 100 100 100 100
58 46 90 98 9 21 84 100 100 100 100 100 100 100 100 100 100 100 100 100 100 100
99 67 76 100 69 27 14 2 35 33 2 2 13 90 100 99 73 99 100 100 100 100
100 100 91 93 95 62 36 22 5 2 0 0 0 5 5 30 67 100 100 100 100 100
100 100 100 100 100 100 88 27 42 5 2 4 4 100 100 64 13 67 99 100 100 100
100 100 100 100 100 100 100 94 48 58 33 81 94 100 100 60 98 100 100 100 100 100
100 100 100 100 100 100 100 100 100 100 100 100 100 100 100 100 100 100 100 100 100 100
100 100 100 100 100 100 100 100 100 100 100 100 100 100 100 100 100 100 100 100 100 100
100 100 100 100 100 100 100 100 100 100 100 100 100 100 100 100 100 100 100 100 100 100

GFSNIL_prec_cloud_111.txt.gz
Cloud_Cover
53 61 65 100 100 100 100 100 100 100 100 100 100 100 100 100 100 100 100 100 100 100
62 93 100 100 100 100 100 100 100 100 100 100 100 100 100 100 100 100 100 100 100 100
83 100 100 95 100 100 100 100 100 100 100 100 100 100 100 100 100 100 100 100 100 100
100 100 100 100 100 100 100 100 100 100 100 100 100 100 100 100 100 100 100 100 100 100
100 100 88 100 100 100 100 100 100 100 100 100 100 100 100 100 100 100 100 100 100 100
100 100 100 100 100 100 100 100 100 100 100 100 100 100 100 100 100 100 100 100 100 100
100 100 100 100 100 100 100 100 100 100 100 100 100 100 100 100 100 100 100 100 100 100
100 100 100 100 100 100 100 93 99 100 100 100 100 100 100 100 100 100 100 100 100 100
100 100 100 100 100 100 100 100 100 100 100 100 100 100 100 100 100 100 100 100 100 100
100 100 100 100 100 100 100 100 100 100 100 100 100 100 100 100 100 100 100 100 100 100
100 100 100 100 100 100 97 100 100 100 100 100 100 100 100 100 100 100 100 100 100 100
100 100 100 100 100 100 100 100 100 100 100 100 100 100 100 100 100 100 100 100 100 100
100 100 100 100 100 100 98 100 100 100 100 99 100 100 100 97 100 100 100 100 100 100
100 100 100 100 100 100 100 100 100 100 100 100 100 100 100 100 100 100 100 100 100 100

GFSNIL_prec_cloud_114.txt.gz
Cloud_Cover
88 93 86 85 81 55 93 100 100 100 100 100 100 100 100 100 100 100 100 100 100 100
100 98 100 98 73 100 94 100 100 100 100 100 100 100 100 100 100 100 100 100 100 100
100 100 98 83 91 100 100 100 100 100 100 100 100 100 100 100 100 100 100 100 100 100
100 100 75 85 87 100 100 100 100 100 100 100 100 100 100 100 100 100 100 100 100 100
100 100 81 97 100 100 100 100 100 100 100 100 100 100 100 100 100 100 100 100 100 100
100 100 86 88 99 100 100 100 100 100 100 100 100 100 100 100 100 100 100 100 100 100
100 100 100 92 77 100 100 100 100 100 100 100 100 100 100 100 100 100 100 100 100 100
100 100 89 61 73 87 95 100 100 100 100 100 100 100 100 100 100 100 100 100 100 100
100 100 100 100 71 63 100 88 96 100 100 100 100 100 100 100 100 100 100 100 100 100
100 100 100 100 100 100 100 100 100 88 95 100 100 100 100 100 100 100 100 100 100 100
100 100 100 100 100 100 100 100 100 93 90 97 99 100 100 100 100 100 100 100 100 100
100 100 100 100 100 100 100 100 100 100 100 99 100 100 100 100 100 100 100 100 100 100
100 100 100 100 100 100 100 100 100 100 100 100 100 99 100 100 100 100 100 100 100 100
100 100 100 100 100 100 100 100 100 100 100 100 100 100 100 100 100 100 100 100 100 100

GFSNIL_prec_cloud_117.txt.gz
Cloud_Cover
90 46 10 14 13 47 9 75 100 99 100 100 100 100 100 100 100 100 100 100 100 100
100 37 10 18 99 92 57 44 99 100 100 100 100 100 100 100 100 100 100 100 100 100
100 56 29 46 100 72 68 68 98 100 100 100 100 100 100 100 100 100 100 100 100 100
100 92 83 98 100 79 53 93 99 100 100 100 100 100 100 100 100 100 100 100 100 100
100 100 100 100 100 95 98 100 100 100 100 100 100 100 100 100 100 100 100 100 100 100
100 100 91 100 100 100 100 100 100 100 100 100 100 100 100 100 100 100 100 100 100 100
100 97 100 100 100 100 100 100 100 100 100 100 100 100 100 100 100 100 100 100 100 100
99 19 100 100 100 100 96 100 100 100 100 100 100 100 100 100 100 100 100 100 100 100
87 100 100 100 100 100 100 100 100 100 100 100 100 100 100 100 100 100 100 100 100 100
100 100 100 100 100 100 100 100 100 100 100 100 100 100 100 100 100 100 100 100 100 100
100 100 100 100 100 100 100 100 100 100 100 100 100 100 100 100 100 100 100 100 100 100
100 100 100 100 100 100 100 100 100 100 100 100 100 100 100 100 100 100 100 100 100 100
100 100 100 100 100 100 100 100 100 100 100 100 100 100 100 100 100 100 100 100 100 100
100 100 100 100 100 100 100 100 100 100 100 100 100 100 100 100 100 100 100 100 100 100

GFSNIL_prec_cloud_120.txt.gz
Cloud_Cover
100 97 100 95 40 1 43 100 74 99 100 100 99 100 100 100 100 100 100 100 100 100
100 100 100 100 77 58 40 62 42 100 100 100 100 100 100 100 100 100 100 100 100 100
100 100 100 100 38 62 73 54 77 100 100 100 100 100 100 100 100 100 100 100 100 100
100 100 100 100 94 100 100 82 100 100 100 100 100 100 100 100 100 100 100 100 100 100
100 100 100 100 97 100 72 100 100 92 70 100 100 100 100 100 100 100 100 100 100 100
100 100 100 100 100 100 94 100 100 98 83 100 100 100 100 100 100 100 100 100 100 100
100 100 100 100 100 90 97 100 100 98 94 100 100 100 100 100 100 100 100 100 100 100
100 100 100 100 100 99 85 100 100 100 100 100 100 100 100 100 100 100 100 100 100 100
100 100 43 100 100 100 100 100 100 100 100 100 100 100 100 100 100 100 100 100 100 100
100 100 100 100 100 100 100 100 100 100 100 100 100 100 100 100 100 100 100 100 100 100
100 100 99 100 100 100 100 100 100 100 100 100 100 100 100 100 100 100 100 100 100 100
100 100 100 100 100 100 100 100 100 100 100 100 100 100 100 100 100 100 100 100 100 100
100 100 100 100 100 100 100 100 100 100 100 100 100 100 100 100 100 100 100 100 100 100
100 100 100 100 100 100 100 100 100 100 100 100 100 100 100 100 100 100 100 100 100 100

GFSNIL_prec_cloud_123.txt.gz
Cloud_Cover
69 7 63 82 97 15 21 92 98 100 98 100 100 100 100 100 100 94 59 99 99 100
96 64 43 34 100 98 89 100 95 88 99 74 100 100 100 100 100 100 100 100 100 100
100 80 100 100 100 100 100 100 88 83 91 100 100 100 100 100 100 100 100 100 100 100
100 100 100 100 100 100 100 100 100 60 99 98 100 100 100 100 100 100 100 100 100 100
86 100 100 100 100 100 100 100 100 100 100 100 100 100 100 100 100 100 100 100 100 100
100 100 100 100 100 100 100 100 70 99 97 100 100 100 100 100 100 100 100 100 100 100
100 100 96 100 100 100 100 100 96 100 100 90 100 100 100 100 100 100 100 100 100 100
100 100 100 100 100 100 100 88 27 100 100 100 100 100 100 100 100 100 100 100 100 100
100 100 100 100 100 100 100 96 45 100 100 100 100 100 100 100 100 100 100 100 100 100
100 100 100 100 100 100 100 100 98 73 99 100 100 100 100 100 100 100 100 100 100 100
100 100 100 100 100 100 100 100 100 99 100 100 100 100 100 100 100 100 100 100 100 100
100 100 100 100 100 100 100 100 100 100 100 100 100 100 100 100 100 100 100 100 100 100
100 100 100 100 100 100 100 100 100 100 100 100 100 100 100 100 100 100 100 100 100 100
100 100 100 100 100 100 98 100 100 100 100 100 100 100 100 100 100 100 100 100 100 100

GFSNIL_prec_cloud_129.txt.gz
Cloud_Cover
100 99 100 85 100 100 100 100 100 100 100 100 100 100 100 100 100 100 100 100 100 98
100 100 100 100 40 100 100 100 100 100 100 100 100 100 100 100 100 100 100 100 100 98
100 100 100 68 86 100 100 100 100 100 100 100 100 100 100 100 100 100 100 100 100 100
87 100 100 100 100 100 100 100 100 100 100 100 100 87 92 100 84 100 100 100 100 100
100 100 100 100 100 100 100 100 100 100 100 100 100 100 100 100 100 100 100 97 100 100
100 100 100 100 100 100 100 100 100 100 100 100 100 100 100 100 100 100 100 100 100 100
100 100 100 100 100 100 100 100 100 100 100 100 100 100 100 100 100 100 100 100 100 100
100 100 100 100 100 100 100 100 100 100 100 100 100 80 38 100 100 100 100 100 100 100
100 100 100 100 100 100 100 98 100 100 100 100 99 100 100 100 100 100 100 100 100 100
100 100 100 100 100 100 100 100 100 100 98 100 98 100 100 100 100 100 100 100 100 100
100 100 100 100 100 100 100 100 100 97 100 88 98 100 100 100 100 100 100 100 100 100
100 100 100 100 100 100 100 100 100 100 97 98 100 100 100 100 100 100 100 100 100 100
100 100 98 98 100 100 100 100 100 100 100 100 100 100 100 100 100 100 100 100 100 100
100 100 100 100 95 100 100 100 100 100 100 100 100 100 100 100 100 100 100 100 100 100

GFSNIL_prec_cloud_132.txt.gz
Cloud_Cover
100 100 100 100 85 100 100 100 100 100 100 100 86 100 100 100 100 100 100 100 36 29
100 100 100 87 100 100 100 100 100 100 100 100 100 100 100 100 100 100 100 100 97 61
100 100 79 100 100 100 100 100 100 100 100 100 100 100 100 100 100 100 100 100 100 98
100 100 100 100 100 100 100 95 100 100 100 100 100 100 100 100 100 100 100 100 100 100
100 100 100 100 100 100 100 100 100 100 100 100 100 100 100 100 100 100 100 100 100 100
100 100 100 100 100 100 100 100 100 100 100 100 100 100 100 100 100 88 91 100 100 100
100 100 100 100 100 100 100 100 100 100 100 100 100 100 100 100 100 100 100 100 100 100
100 100 100 100 100 100 100 100 100 100 100 100 100 100 100 100 100 100 100 100 100 100
100 100 100 100 100 100 100 100 100 100 100 100 100 100 100 100 100 100 100 100 100 100
100 100 100 100 100 100 100 100 100 100 100 100 100 100 100 100 96 100 100 100 100 100
100 100 100 100 100 100 100 100 100 100 100 99 100 100 100 100 100 100 100 100 100 100
100 100 100 100 100 100 100 100 100 100 100 100 100 100 100 100 100 100 100 100 100 100
100 100 100 100 100 100 100 100 100 100 100 100 100 100 100 100 100 100 100 100 100 100
100 100 100 100 100 100 100 100 100 100 100 100 100 100 100 100 100 100 100 100 100 100

GFSNIL_prec_cloud_138.txt.gz
Cloud_Cover
0 8 8 83 96 100 79 97 100 100 100 100 100 100 100 100 100 100 100 78 100 98
0 0 0 10 98 100 88 100 100 100 100 100 100 100 100 100 100 100 94 64 80 100
21 12 84 96 69 100 87 99 100 100 100 100 100 100 100 100 100 100 100 100 99 100
20 50 81 99 88 58 100 100 65 100 100 100 100 100 100 100 100 100 100 100 100 100
100 100 100 100 94 99 97 69 89 100 100 100 100 100 100 100 100 100 100 100 100 100
100 100 100 100 100 100 100 100 100 100 100 100 100 100 100 100 100 100 100 100 100 100
100 100 100 98 100 100 100 100 100 92 100 100 100 100 100 100 100 100 100 100 100 100
100 100 100 90 85 100 100 100 100 100 100 100 100 100 100 100 100 100 100 100 100 100
100 100 100 100 100 100 100 100 100 100 100 100 100 100 100 100 100 100 100 100 100 100
100 100 100 100 100 100 100 100 100 100 100 100 100 100 100 100 100 100 100 100 100 100
100 100 100 100 100 100 100 100 100 100 100 100 100 100 100 100 100 100 100 100 100 100
100 100 100 100 100 100 100 100 100 100 100 100 100 100 100 100 100 100 100 100 100 100
100 100 100 100 100 100 100 100 100 100 100 100 100 100 100 100 100 100 100 100 100 100
100 100 100 100 100 100 100 100 100 100 100 100 100 100 100 100 100 100 100 100 100 100

GFSNIL_prec_cloud_141.txt.gz
Cloud_Cover
4 2 100 6 31 74 98 100 100 100 85 98 88 36 100 100 100 100 100 100 100 100
8 34 32 0 11 98 100 100 100 100 100 100 100 55 51 99 100 100 100 100 100 100
46 19 92 0 100 100 100 100 100 100 100 100 96 97 97 82 99 100 100 100 100 100
49 76 100 100 100 100 100 100 100 100 100 100 100 100 100 100 100 100 100 100 94 100
100 100 99 100 100 100 100 100 100 100 100 96 100 100 100 100 100 100 100 100 100 100
100 100 100 100 100 100 100 99 11 94 100 79 100 100 100 100 100 100 100 100 100 100
100 100 100 100 100 100 100 100 100 94 96 100 100 100 100 100 100 100 100 100 100 100
100 100 100 100 100 100 100 100 100 100 100 100 100 100 100 100 100 100 100 100 100 100
100 100 100 100 100 100 100 100 100 100 100 100 100 100 100 100 100 100 100 100 100 100
100 100 100 100 87 100 100 100 100 100 100 100 100 100 100 100 100 100 100 100 100 100
100 100 100 100 100 100 100 100 100 100 100 100 100 100 100 100 100 100 100 100 100 100
100 100 100 100 100 100 100 100 100 100 100 100 100 100 100 100 100 100 100 100 100 100
100 100 100 100 100 100 100 100 100 100 100 100 100 100 100 100 100 100 100 100 100 100
100 100 100 100 100 100 100 100 100 100 100 100 100 100 100 100 100 100 100 100 100 100